Location: Borkenes
(68.7830°N, 16.1830°E)
Time: 13:47:12
(UTC+01:00)

NOAA 19 - Visible Passes

Search period start: 08 December 2019 00:00
Search period end: 18 December 2019 00:00
Orbit: 842 x 860 km, 99.2° (Epoch: 07 December)

Date Brightness Start Highest point End Pass type
(mag) Time Alt. Az. Time Alt. Az. Time Alt. Az.
08 Dec 7.7 04:17:30 10° NNE 04:21:41 21° E 04:25:51 10° SE visible
08 Dec 5.9 05:58:03 10° NNE 06:03:34 56° ESE 06:09:01 10° S visible
08 Dec 5.2 07:38:54 10° NNE 07:44:25 62° NW 07:49:53 10° SW visible
08 Dec 5.5 14:18:00 10° ESE 14:23:21 49° NE 14:28:42 10° NNW visible
08 Dec 5.5 15:58:21 10° SSE 16:03:55 75° WSW 16:09:32 10° NNW visible
08 Dec 7.3 17:40:42 10° SSW 17:45:28 28° W 17:50:16 10° NNW visible
08 Dec 8.5 19:27:30 10° WNW 19:28:08 10° WNW 19:28:46 10° WNW visible
09 Dec 7.8 04:05:55 10° NE 04:09:48 19° ENE 04:13:39 10° ESE visible
09 Dec 6.2 05:46:22 10° NNE 05:51:48 50° ESE 05:57:11 10° S visible
09 Dec 5.2 07:27:13 10° NNE 07:32:46 68° NW 07:38:16 10° SW visible
09 Dec 5.4 15:46:37 10° SSE 15:52:13 83° WSW 15:57:50 10° NNW visible
09 Dec 7.1 17:28:41 10° SSW 17:33:38 32° W 17:38:36 10° NNW visible
09 Dec 8.4 19:14:15 10° W 19:16:09 12° WNW 19:18:04 10° NW visible
10 Dec 8.0 03:54:22 10° NE 03:57:53 17° ENE 04:01:23 10° ESE visible
10 Dec 6.4 05:34:40 10° NNE 05:40:01 44° E 05:45:19 10° S visible
10 Dec 5.2 07:15:30 10° NNE 07:21:05 75° WNW 07:26:38 10° SW visible
10 Dec 5.8 08:56:15 10° NNE 09:01:18 37° NNW 09:06:20 10° W visible
10 Dec 5.3 15:34:55 10° SSE 15:40:30 89° ENE 15:46:08 10° NNW visible
10 Dec 6.9 17:16:42 10° SSW 17:21:48 35° W 17:26:55 10° NNW visible
10 Dec 8.3 19:01:35 10° W 19:04:12 13° WNW 19:06:48 10° NW visible
11 Dec 8.1 03:42:52 10° NE 03:45:57 15° ENE 03:49:01 10° ESE visible
11 Dec 6.6 05:22:59 10° NNE 05:28:13 39° E 05:33:24 10° SSE visible
11 Dec 5.2 07:03:48 10° NNE 07:09:25 82° WNW 07:14:58 10° SW visible
11 Dec 5.7 08:44:34 10° NNE 08:49:43 39° NW 08:54:49 10° WSW visible
11 Dec 5.2 15:23:14 10° SE 15:28:49 82° ENE 15:34:25 10° NNW visible
11 Dec 6.7 17:04:46 10° SSW 17:10:00 40° W 17:15:15 10° NNW visible
11 Dec 8.2 18:49:07 10° WSW 18:52:15 15° WNW 18:55:23 10° NW visible
12 Dec 8.2 03:31:28 10° NE 03:34:00 13° ENE 03:36:32 10° E visible
12 Dec 6.8 05:11:19 10° NNE 05:16:24 35° E 05:21:28 10° SSE visible
12 Dec 5.2 06:52:06 10° NNE 06:57:43 90° SW 07:03:17 10° SSW visible
12 Dec 5.6 08:32:53 10° NNE 08:38:07 42° NW 08:43:18 10° WSW visible
12 Dec 5.2 15:11:34 10° SE 15:17:08 74° ENE 15:22:43 10° NNW visible
12 Dec 6.4 16:52:52 10° S 16:58:12 45° W 17:03:33 10° NNW visible
12 Dec 8.0 18:36:47 10° WSW 18:40:19 17° WNW 18:43:52 10° NW visible
13 Dec 8.3 03:20:13 10° NE 03:22:02 11° ENE 03:23:51 10° E visible
13 Dec 7.0 04:59:38 10° NNE 05:04:35 31° E 05:09:29 10° SSE visible
13 Dec 5.3 06:40:24 10° NNE 06:46:01 82° ESE 06:51:35 10° SSW visible
13 Dec 5.5 08:21:12 10° NNE 08:26:30 45° NW 08:31:45 10° WSW visible
13 Dec 5.2 14:59:57 10° SE 15:05:28 67° NE 15:11:01 10° NNW visible
13 Dec 6.2 16:41:00 10° S 16:46:25 50° WSW 16:51:52 10° NNW visible
13 Dec 7.9 18:24:31 10° WSW 18:28:24 19° WNW 18:32:18 10° NW visible
14 Dec 8.4 03:09:56 10° ENE 03:10:03 10° ENE 03:10:11 10° ENE visible
14 Dec 7.2 04:47:58 10° NNE 04:52:44 28° E 04:57:28 10° SSE visible
14 Dec 5.5 06:28:41 10° NNE 06:34:17 74° ESE 06:39:50 10° SSW visible
14 Dec 5.4 08:09:31 10° NNE 08:14:53 49° NW 08:20:12 10° WSW visible
14 Dec 5.3 14:48:19 10° SE 14:53:48 61° NE 14:59:18 10° NNW visible
14 Dec 6.0 16:29:10 10° S 16:34:39 56° WSW 16:40:10 10° NNW visible
14 Dec 7.7 18:12:20 10° SW 18:16:30 21° W 18:20:43 10° NNW visible
15 Dec 7.4 04:36:20 10° NNE 04:40:53 25° E 04:45:23 10° SE visible
15 Dec 5.6 06:16:59 10° NNE 06:22:33 66° ESE 06:28:04 10° SSW visible
15 Dec 5.3 07:57:49 10° NNE 08:03:14 54° NW 08:08:37 10° WSW visible
15 Dec 5.4 14:36:44 10° SE 14:42:10 56° NE 14:47:36 10° NNW visible
15 Dec 5.8 16:17:22 10° S 16:22:54 63° WSW 16:28:27 10° NNW visible
15 Dec 7.6 18:00:11 10° SW 18:04:38 24° W 18:09:05 10° NNW visible
16 Dec 7.6 04:24:42 10° NNE 04:29:00 22° E 04:33:16 10° SE visible
16 Dec 5.8 06:05:17 10° NNE 06:10:48 59° ESE 06:16:17 10° S visible
16 Dec 5.3 07:46:08 10° NNE 07:51:36 59° NW 07:57:02 10° SW visible
16 Dec 5.4 14:25:09 10° ESE 14:30:32 51° NE 14:35:55 10° NNW visible
16 Dec 5.6 16:05:36 10° SSE 16:11:10 71° WSW 16:16:45 10° NNW visible
16 Dec 7.4 17:48:06 10° SW 17:52:46 27° W 17:57:27 10° NNW visible
17 Dec 7.7 04:13:06 10° NNE 04:17:07 20° E 04:21:06 10° SE visible
17 Dec 6.0 05:53:35 10° NNE 05:59:02 53° ESE 06:04:28 10° S visible
17 Dec 5.2 07:34:26 10° NNE 07:39:57 65° NW 07:45:26 10° SW visible
17 Dec 5.9 09:15:06 10° NNE 09:20:02 34° NNW 09:24:57 10° W visible
17 Dec 5.5 14:13:36 10° ESE 14:18:54 47° NE 14:24:13 10° NNW visible
17 Dec 5.4 15:53:51 10° SSE 15:59:26 78° WSW 16:05:03 10° NNW visible
17 Dec 7.2 17:36:03 10° SSW 17:40:55 30° W 17:45:47 10° NNW visible
17 Dec 8.4 19:22:06 10° W 19:23:31 11° WNW 19:24:56 10° NW visible
